OpenBCM V1.08-5-g2f4a (Linux)

Packet Radio Mailbox

IZ3LSV

[San Dona' di P. JN]

 Login: GUEST





  
CX2SA  > KEPS     20.06.14 04:14l 108 Lines 2768 Bytes #999 (0) @ WW
BID : ORB14170.O
Read: GUEST
Subj: Orbital Elements  14170.OSCAR
Path: IZ3LSV<IQ5KG<IK1NHL<CX2SA
Sent: 140620/0312Z @:CX2SA.SAL.URY.SA #:7047 [Salto] FBB7.00e $:ORB14170.O
From: CX2SA@CX2SA.SAL.URY.SA
To  : KEPS@AMSAT


HR AMSAT ORBITAL ELEMENTS FOR OSCAR SATELLITES
FROM WA5QGD FORT WORTH,TX June 19, 2014
BID: ORB14170.O
TO ALL RADIO AMATEURS BT

Satellite: AO-07
Catalog number: 07530
Epoch time:      14169.81246832
Element set:     993
Inclination:      101.4707 deg
RA of node:       151.5904 deg
Eccentricity:    0.0011440
Arg of perigee:   292.8982 deg
Mean anomaly:     133.5330 deg
Mean motion:   12.53605529 rev/day
Decay rate:       -2.7e-07 rev/day^2
Epoch rev:           81172
Checksum:              289

Satellite: FO-29
Catalog number: 24278
Epoch time:      14170.37653102
Element set:     399
Inclination:      098.5116 deg
RA of node:       183.9333 deg
Eccentricity:    0.0349394
Arg of perigee:   292.0108 deg
Mean anomaly:     175.3043 deg
Mean motion:   13.53025046 rev/day
Decay rate:       -2.0e-07 rev/day^2
Epoch rev:           88096
Checksum:              306

Satellite: SO-33
Catalog number: 25509
Epoch time:      14170.37887336
Element set:     775
Inclination:      031.4313 deg
RA of node:       147.9628 deg
Eccentricity:    0.0349564
Arg of perigee:   133.6270 deg
Mean anomaly:     352.9719 deg
Mean motion:   14.29549738 rev/day
Decay rate:       1.47e-06 rev/day^2
Epoch rev:           81746
Checksum:              345

Satellite: RS-22
Catalog number: 27939
Epoch time:      14170.55484426
Element set:     593
Inclination:      097.8113 deg
RA of node:       344.5816 deg
Eccentricity:    0.0014450
Arg of perigee:   098.9025 deg
Mean anomaly:     261.3808 deg
Mean motion:   14.65216020 rev/day
Decay rate:       4.55e-06 rev/day^2
Epoch rev:           57307
Checksum:              310

Satellite: VO-52
Catalog number: 28650
Epoch time:      14169.83765652
Element set:     768
Inclination:      097.5594 deg
RA of node:       174.7213 deg
Eccentricity:    0.0026246
Arg of perigee:   149.8946 deg
Mean anomaly:     210.3785 deg
Mean motion:   14.85501306 rev/day
Decay rate:       9.21e-06 rev/day^2
Epoch rev:           49347
Checksum:              345

Satellite: HO-68
Catalog number: 36122
Epoch time:      14170.77029223
Element set:     693
Inclination:      100.2487 deg
RA of node:       222.5701 deg
Eccentricity:    0.0007297
Arg of perigee:   230.2660 deg
Mean anomaly:     129.7808 deg
Mean motion:   13.16316423 rev/day
Decay rate:       -4.3e-07 rev/day^2
Epoch rev:           21677
Checksum:              283

Satellite: AO-73
Catalog number: 39444
Epoch time:      14170.25430152
Element set:     172
Inclination:      097.7715 deg
RA of node:       240.8381 deg
Eccentricity:    0.0060906
Arg of perigee:   236.2249 deg
Mean anomaly:     123.3158 deg
Mean motion:   14.78316722 rev/day
Decay rate:      1.491e-05 rev/day^2
Epoch rev:            2977
Checksum:              303



Read previous mail | Read next mail


 22.12.2024 10:30:37lGo back Go up